Regional Weather Roundup
Issued by NWS

Home | Current Version | Previous Version | Graphics & Text | Print | Product List | Glossary Off
Versions: 1 2 3 4 5 6 7 8 9 10 11 12 13 14 15 16 17 18 19 20 21 22 23 24 25 26 27 28 29 30 31 32 33 34 35 36 37 38 39 40 41 42 43 44 45 46 47 48 49 50

000
ASUS43 KTOP 192259
RWRKS

WEATHER ROUNDUP FOR KANSAS
NATIONAL WEATHER SERVICE GOODLAND KS
500 PM CST FRI JAN 19 2018

NOTE:  "FAIR" INDICATES FEW OR NO CLOUDS BELOW 12,000 FEET WITH NO
SIGNIFICANT WEATHER AND/OR OBSTRUCTIONS TO VISIBILITY.

KSZ001>006-013>018-027>032-041>047-200000-
NORTHWEST KANSAS

CITY           SKY/WX    TMP DP  RH WIND       PRES   REMARKS
GOODLAND       CLOUDY    61  21  21 N5        29.68R
HAYS           CLOUDY    59  19  21 S16       29.66R
HILL CITY      CLOUDY    61  20  20 SE7       29.65R
RUSSELL        CLOUDY    60  21  22 S16       29.66S
$$

KSZ061>065-074>080-084>089-200000-
SOUTHWEST KANSAS

CITY           SKY/WX    TMP DP  RH WIND       PRES   REMARKS
DODGE CITY     CLOUDY    62  18  18 S15       29.69S
GARDEN CITY    CLOUDY    63  14  15 S10       29.68R
GREAT BEND     CLOUDY    57  20  23 S9        29.70R
LIBERAL        CLOUDY    66  17  15 S16       29.71R
$$

KSZ066>073-081>083-090>101-200000-
SOUTHEAST KANSAS

CITY           SKY/WX    TMP DP  RH WIND       PRES   REMARKS
CHANUTE        CLOUDY    47  26  44 S10       29.87F
COFFEYVILLE    CLOUDY    50  27  40 S13       29.89F
HUTCHINSON     CLOUDY    55  23  28 S15       29.74F
MEDICINE LODGE   N/A     59  19  21 S10       29.74R
NEWTON         CLOUDY    51  24  34 S14       29.77S
PARSONS        CLOUDY    49  27  42 S9        29.89S
WICHITA INTL   CLOUDY    55  23  28 S16       29.77F
WICHITA JABRA  CLOUDY    54  23  30 S16       29.78S
WICHITA MCCONL CLOUDY    54  22  28 S18       29.78S
WINFIELD       CLOUDY    56  22  26 S15       29.83S
$$

KSZ007>012-019>026-033>040-048>060-102>105-200000-
NORTHEAST KANSAS

CITY           SKY/WX    TMP DP  RH WIND       PRES   REMARKS
CONCORDIA      CLOUDY    47  26  44 S13       29.69R
EMPORIA        CLOUDY    49  25  39 S14       29.79F
LAWRENCE       CLOUDY    46  29  51 SE13      29.81F
MANHATTAN      CLOUDY    51  25  36 S8        29.73F
OLATHE IND     CLOUDY    45  28  51 S15       29.83F
OLATHE EXE     CLOUDY    45  27  49 S15       29.82F
SALINA         CLOUDY    50  28  42 S13       29.73R
TOPEKA BILLARD CLOUDY    47  30  51 S8        29.78F
TOPEKA FORBES  CLOUDY    47  29  49 S12       29.78F
$$




USA.gov is the U.S. government's official web portal to all federal, state and local government web resources and services.